Weather History for Akron, OH

Change the Weather History Date:

Saturday, March 24, 2012

  Actual Average (KCAK) Record (KCAK)
Temperature  
Mean Temperature 60 °F 40 °F  
Max Temperature 69 °F 50 °F 82 °F (1910)
Min Temperature 53 °F 31 °F 8 °F (1906)
Degree Days  
Heating Degree Days 5 25  
Month to date heating degree days 690  
Since 1 July heating degree days 5234  
Cooling Degree Days 0 0  
Month to date cooling degree days 0  
Year to date cooling degree days 0  
Growing Degree Days 10 (Base 50)    
Moisture  
Dew Point 57 °F    
Average Humidity 86    
Maximum Humidity 96    
Minimum Humidity 60    
Precipitation  
Precipitation 0.20 in 0.10 in 0.62 in (1969)
Month to date precipitation 2.23  
Year to date precipitation 7.15  
Snow  
Snow 0.00 in 0.30 in - ()
Month to date snowfall 7.0  
Since 1 July snowfall 43.5  
Snow Depth -    
Sea Level Pressure  
Sea Level Pressure 29.83 in    
Wind  
Wind Speed 4 mph (SSE)    
Max Wind Speed 13 mph    
Max Gust Speed 20 mph    
Visibility 8 miles    
Events Rain    
T = Trace of Precipitation, MM = Missing Value Source: NWS Daily Summary

Daily Weather History Graph

Daily Weather History Graph

Search for Another Location

Airport:

Trip Planner

Search our weather history database for the weather conditions in past years. The results will help you decide how hot, cold, wet, or windy it might be!

Date:

Astronomy

Mar. 24, 2012 Rise Set
Actual Time 7:21 AM EDT 7:42 PM EDT
Civil Twilight 6:54 AM EDT 8:10 PM EDT
Nautical Twilight 6:21 AM EDT 8:42 PM EDT
Astronomical Twilight 5:48 AM EDT 9:15 PM EDT
Moon 7:58 AM EDT (3/24) 10:02 PM EDT (3/24)
Length of Visible Light 13h 16m
Length of Day
12h 21m
Waxing Crescent, 4% of the Moon is Illuminated
Mar 24
Waxing Crescent
Mar 30
First Quarter
Apr 6
Full
Apr 13
Last Quarter
Apr 21
New

Hourly Weather History & Observations

Time (EDT) Temp. Dew Point Humidity Pressure Visibility Wind Dir Wind Speed Gust Speed Precip Events Conditions
12:54 AM 61.0 °F 59.0 °F 93% 29.86 in 9.0 mi Calm Calm - 0.01 in Rain Light Rain
1:54 AM 61.0 °F 59.0 °F 93% 29.85 in 10.0 mi Variable 3.5 mph - 0.05 in Rain Light Rain
2:54 AM 60.8 °F 59.0 °F 94% 29.86 in 9.0 mi Calm Calm - N/A Rain Light Rain
3:23 AM 60.8 °F 59.0 °F 94% 29.86 in 10.0 mi Variable 3.5 mph - 0.00 in   Overcast
3:37 AM 60.8 °F 59.0 °F 94% 29.86 in 5.0 mi SE 5.8 mph - 0.01 in Rain Light Rain
3:52 AM 60.8 °F 59.0 °F 94% 29.85 in 7.0 mi ESE 5.8 mph - 0.01 in Rain Light Rain
3:54 AM 61.0 °F 59.0 °F 93% 29.83 in 6.0 mi Variable 3.5 mph - 0.01 in Rain Light Rain
4:01 AM 60.8 °F 59.0 °F 94% 29.85 in 6.0 mi SE 5.8 mph - 0.00 in Rain Light Rain
4:09 AM 60.8 °F 59.0 °F 94% 29.84 in 4.0 mi ESE 5.8 mph - 0.02 in Rain Rain
4:40 AM 60.8 °F 59.0 °F 94% 29.84 in 2.5 mi ESE 3.5 mph - 0.13 in Rain Light Rain
4:47 AM 60.8 °F 59.0 °F 94% 29.84 in 8.0 mi Variable 4.6 mph - 0.13 in Rain Light Rain
4:54 AM 61.0 °F 59.0 °F 93% 29.82 in 8.0 mi Variable 4.6 mph - 0.13 in Rain Light Rain
5:18 AM 60.8 °F 59.0 °F 94% 29.84 in 7.0 mi SE 3.5 mph - 0.00 in   Overcast
5:44 AM 60.8 °F 59.0 °F 94% 29.83 in 7.0 mi Calm Calm - 0.00 in   Scattered Clouds
5:54 AM 61.0 °F 59.0 °F 93% 29.82 in 7.0 mi Variable 3.5 mph - 0.00 in   Partly Cloudy
6:54 AM 60.1 °F 57.9 °F 93% 29.82 in 6.0 mi Calm Calm - N/A   Partly Cloudy
7:54 AM 61.0 °F 59.0 °F 93% 29.83 in 6.0 mi SE 3.5 mph - N/A   Overcast
8:23 AM 60.8 °F 59.0 °F 94% 29.85 in 5.0 mi Variable 3.5 mph - N/A   Overcast
8:31 AM 60.8 °F 59.0 °F 94% 29.85 in 4.0 mi South 5.8 mph - 0.00 in Rain Light Rain
8:49 AM 60.8 °F 59.0 °F 94% 29.84 in 5.0 mi South 4.6 mph - 0.00 in   Mostly Cloudy
8:54 AM 61.0 °F 59.0 °F 93% 29.84 in 5.0 mi SSE 3.5 mph - 0.00 in   Mostly Cloudy
9:54 AM 61.0 °F 59.0 °F 93% 29.83 in 6.0 mi Calm Calm - N/A   Clear
10:54 AM 63.0 °F 59.0 °F 87% 29.81 in 10.0 mi SE 4.6 mph - N/A   Mostly Cloudy
11:54 AM 64.0 °F 59.0 °F 84% 29.81 in 10.0 mi ESE 6.9 mph - N/A   Partly Cloudy
12:54 PM 64.9 °F 57.9 °F 78% 29.82 in 10.0 mi South 9.2 mph - N/A   Scattered Clouds
1:09 PM 64.4 °F 57.2 °F 77% 29.83 in 10.0 mi SW 11.5 mph - N/A   Mostly Cloudy
1:39 PM 64.4 °F 55.4 °F 73% 29.83 in 10.0 mi SW 10.4 mph - N/A   Mostly Cloudy
1:54 PM 64.9 °F 57.0 °F 75% 29.82 in 10.0 mi SSW 8.1 mph - N/A   Scattered Clouds
2:54 PM 64.9 °F 55.0 °F 70% 29.80 in 10.0 mi South 4.6 mph - N/A   Scattered Clouds
3:54 PM 66.0 °F 53.1 °F 63% 29.79 in 10.0 mi West 6.9 mph - N/A   Scattered Clouds
4:54 PM 66.9 °F 53.1 °F 61% 29.79 in 10.0 mi WSW 3.5 mph - N/A   Mostly Cloudy
5:54 PM 66.0 °F 52.0 °F 60% 29.80 in 10.0 mi West 9.2 mph - N/A   Overcast
6:54 PM 63.0 °F 53.1 °F 70% 29.83 in 10.0 mi North 12.7 mph - N/A   Overcast
7:02 PM 62.6 °F 51.8 °F 68% 29.84 in 10.0 mi NNW 12.7 mph 19.6 mph N/A   Overcast
7:54 PM 59.0 °F 52.0 °F 78% 29.84 in 10.0 mi North 8.1 mph - N/A   Mostly Cloudy
8:54 PM 57.0 °F 53.1 °F 87% 29.83 in 10.0 mi NNE 6.9 mph - N/A   Clear
9:54 PM 55.0 °F 52.0 °F 89% 29.83 in 10.0 mi NNE 3.5 mph - N/A   Clear
10:54 PM 54.0 °F 52.0 °F 93% 29.86 in 10.0 mi South 4.6 mph - N/A   Clear
11:54 PM 53.1 °F 52.0 °F 96% 29.86 in 6.0 mi Calm Calm - N/A   Clear